[Date Prev][Date Next][Thread Prev][Thread Next] - [Date Index][Thread Index][Author Index]

2 Line ISS Keps 10-30



ISS
1 25544U 98067A   03303.20957148  .00073585  00000-0  78708-3 0  7174
2 25544  51.6313  59.5956 0006782  88.0121 348.0706 15.63182232282107


----
Via the sarex mailing list at AMSAT.ORG courtesy of AMSAT-NA.
To unsubscribe, send "unsubscribe sarex" to Majordomo@amsat.org



AMSAT Top AMSAT Home